Location: Archemont
(49.1579°N, 1.7598°E)
Time: 08:39:32
(UTC+00:00)

ISS - Pass Details

Date: 02 March 2024
Orbit: 413 x 419 km, 51.6° (Epoch: 13 April)

Event Time Altitude Azimuth Distance (km) Brightness Sun altitude
Exits shadow 05:03:53 31° 291° (WNW) 777 -2.9 -15.3°
Maximum altitude 05:05:24 85° 20° (NNE) 433 -3.8 -15.0°
Drops below altitude 10° 05:08:49 10° 108° (ESE) 1,517 0.2 -14.5°
Sets 05:10:55 0° 109° (ESE) 2,379 1.3 -14.1°
